Vorticity
nan nan nan nan nan nan nan nan nan nan nan nan nan nan nan nan nan nan nan nan nan nan nan nan nan nan nan nan nan nan nan nan nan nan nan nan nan nan nan nan nan nan nan nan nan nan nan nan nan nan nan nan nan nan nan nan nan nan nan nan nan nan nan nan nan nan nan nan nan nan nan nan nan nan nan nan nan nan nan nan nan nan nan nan nan nan nan nan nan nan nan nan nan nan nan nan nan nan nan nan nan nan nan
nan 4 4 5 6 6 7 7 7 8 7 7 7 7 6 6 6 6 6 6 6 6 6 6 6 7 7 6 7 7 7 8 8 8 8 8 8 8 8 9 9 8 7 6 6 6 15 20 15 11 16 18 14 10 7 6 5 5 6 9 11 9 5 2 3 3 4 5 5 6 6 6 5 6 8 11 13 13 9 6 5 5 5 7 7 7 6 5 6 7 5 4 4 5 5 5 5 5 5 6 7 7 nan
nan 4 4 5 5 6 6 7 7 8 8 7 7 7 7 7 6 6 6 6 6 6 6 6 7 7 7 6 7 7 8 8 8 8 8 8 8 8 8 9 9 8 7 7 7 8 15 18 16 13 15 16 15 13 9 7 6 6 7 7 8 6 2 2 3 4 6 6 7 7 7 6 6 5 7 9 11 12 9 6 6 6 6 6 7 8 6 5 6 7 5 4 4 5 4 4 5 5 4 6 6 7 nan
nan 4 4 5 6 6 6 7 7 7 7 7 7 7 7 7 6 6 6 6 6 6 6 7 7 7 7 6 7 7 8 8 8 8 8 8 8 9 9 9 8 8 7 7 9 17 19 13 13 14 13 12 15 17 15 11 8 6 7 8 7 3 -1 1 4 6 7 8 8 8 7 7 7 6 6 8 8 9 9 7 5 5 5 5 6 9 9 7 7 6 5 5 5 5 4 5 5 4 4 5 5 6 nan
nan 4 4 5 6 6 6 7 7 7 7 7 7 7 7 7 6 6 6 6 6 6 6 7 7 7 7 7 7 7 8 8 8 8 8 8 8 9 10 8 8 7 7 7 10 20 17 11 14 14 12 13 16 17 17 15 12 9 8 6 4 1 -0 2 4 6 8 9 9 9 8 8 7 7 6 7 7 7 8 7 5 4 3 3 4 8 10 9 8 7 6 5 6 5 5 5 5 4 5 6 5 5 nan
nan 4 4 5 6 6 7 7 7 7 7 7 7 7 7 7 6 6 6 6 6 6 7 7 7 7 7 7 7 7 8 7 8 8 8 8 8 9 9 8 7 7 8 8 10 17 19 18 15 10 9 12 13 13 15 15 13 10 7 5 2 0 2 3 5 6 8 9 9 9 8 8 7 8 8 7 7 7 7 7 7 6 5 3 3 5 9 11 10 9 6 6 6 6 5 5 5 5 7 8 6 5 nan
nan 4 4 5 6 7 7 7 7 7 7 7 7 7 7 7 7 6 6 6 6 6 7 7 7 7 7 7 7 7 7 7 8 8 8 8 8 9 8 7 7 7 7 8 11 16 21 19 12 7 7 10 9 11 14 13 12 10 8 5 3 2 4 4 5 6 7 9 10 10 10 8 7 8 9 8 8 7 7 7 7 7 6 5 4 4 7 9 9 9 7 7 6 7 6 5 5 6 8 7 7 6 nan
nan 4 5 6 7 7 7 7 7 7 7 7 7 7 7 7 6 6 6 6 6 6 7 7 7 7 7 7 7 7 7 7 8 8 8 9 9 8 7 7 7 7 7 9 11 13 20 22 14 8 10 10 4 4 9 16 17 15 12 7 6 6 5 4 5 5 6 7 8 9 11 9 8 8 9 9 8 7 7 7 6 6 6 6 5 5 6 8 8 8 8 8 6 6 6 6 6 7 7 6 7 6 nan
nan 4 4 6 7 8 7 7 7 7 7 7 7 7 7 7 6 6 6 6 6 6 7 7 7 7 7 7 7 7 7 7 7 8 8 9 9 8 7 6 6 7 8 9 10 11 21 25 15 8 9 5 1 2 11 20 18 16 14 9 8 7 6 5 5 5 5 6 7 8 11 12 10 9 9 9 9 8 6 6 6 6 6 7 7 7 8 8 7 6 7 8 6 6 7 7 7 8 6 6 6 7 nan
nan 3 4 7 8 8 8 7 7 7 8 7 7 7 7 6 6 6 6 6 6 7 7 8 7 7 7 8 8 7 7 6 7 8 8 9 9 8 7 6 6 7 8 10 11 11 24 27 12 7 7 2 3 7 15 17 14 15 14 11 11 9 8 6 4 4 4 5 6 7 10 13 12 10 10 11 10 9 6 6 6 6 6 7 8 9 10 10 8 6 6 7 7 7 7 6 5 6 5 6 6 6 nan
nan 3 5 8 9 9 8 7 7 7 8 8 8 7 7 6 6 6 6 6 6 7 7 8 7 7 8 8 8 7 7 7 7 8 8 9 8 7 6 6 7 8 9 11 13 14 24 23 11 9 5 2 5 10 15 13 10 16 14 7 11 16 17 13 8 4 3 4 5 6 7 11 13 12 11 11 11 10 8 6 6 6 7 7 8 9 10 11 9 7 6 6 7 7 7 5 4 4 4 6 5 6 nan
nan 4 7 10 10 8 7 7 7 7 8 8 8 7 7 6 6 6 6 6 7 7 8 8 7 7 8 8 8 7 7 7 8 8 8 8 8 7 6 6 7 8 10 13 17 20 25 20 9 7 5 5 9 12 12 8 7 12 3 -4 8 19 24 22 16 10 5 4 4 4 5 8 11 12 12 12 12 12 10 6 6 6 6 7 8 8 9 10 9 8 6 5 6 6 7 7 6 4 5 7 6 6 nan
nan 6 9 10 8 7 7 7 7 7 8 8 8 8 7 6 6 6 6 6 7 8 8 8 7 7 8 8 7 7 7 8 8 8 8 8 7 6 6 6 7 9 12 18 24 27 23 11 4 5 9 11 9 8 8 8 7 4 -12 -13 1 13 23 27 27 24 17 10 6 4 3 4 8 10 12 12 12 13 11 8 7 6 6 7 7 7 8 9 9 8 6 5 5 6 7 8 8 7 6 5 5 5 nan
nan 7 8 7 7 8 7 7 7 7 8 8 8 8 7 6 6 6 6 7 7 8 8 8 7 8 8 8 7 7 8 8 9 9 8 7 6 5 5 7 8 11 16 26 30 23 9 1 4 9 12 10 5 4 8 11 6 -4 -15 -10 -1 6 12 19 25 30 30 23 16 9 4 3 4 7 9 12 13 13 12 10 8 7 7 7 7 7 7 8 8 8 7 6 5 5 6 8 9 9 8 5 5 5 nan
nan 5 6 7 8 7 7 7 7 7 8 8 8 8 6 6 6 6 6 7 8 8 8 7 7 8 8 8 8 8 9 9 9 9 8 6 6 5 5 8 10 13 25 31 21 8 -1 2 10 12 10 7 5 5 9 11 3 -10 -13 -4 0 3 5 9 14 21 30 34 29 21 11 5 4 4 6 9 12 13 13 11 9 8 8 8 8 7 6 7 7 8 8 6 5 5 6 7 8 9 11 7 6 5 nan
nan 3 6 8 8 7 7 7 7 7 8 8 8 7 6 6 6 6 6 7 8 8 8 7 7 8 8 8 9 13 12 9 10 9 7 5 5 4 6 10 14 21 29 23 8 -1 -0 9 14 12 7 4 6 7 8 7 -2 -13 -9 0 2 4 4 5 6 10 19 30 33 32 22 13 9 6 5 7 9 11 12 11 10 9 9 9 9 8 7 7 7 8 8 6 6 5 6 6 6 8 10 10 8 6 nan
nan 4 6 7 7 7 7 7 7 7 7 7 7 7 6 6 6 6 7 8 8 8 7 7 7 8 8 8 13 23 18 9 9 7 4 4 4 5 8 13 20 28 23 10 2 -0 4 13 15 10 4 5 8 7 7 4 -7 -11 -4 2 4 5 6 6 6 6 9 18 26 31 29 22 18 13 9 7 7 9 10 10 10 10 11 10 9 8 7 7 7 8 8 7 6 6 6 6 6 6 8 10 10 9 nan
nan 4 6 6 7 7 7 7 7 7 7 7 6 6 6 6 6 6 7 8 8 8 7 6 8 9 9 11 17 26 19 9 9 6 1 1 4 7 12 19 23 23 13 3 0 2 8 12 12 9 5 6 8 6 7 1 -8 -8 -2 3 4 6 6 6 6 6 7 11 16 21 25 25 24 21 16 12 10 10 9 10 10 11 11 11 9 9 7 6 6 7 7 6 6 7 7 6 6 6 6 8 9 9 nan
nan 6 6 6 6 6 7 7 7 7 7 7 6 6 7 7 6 6 7 8 8 7 6 8 10 11 12 15 20 20 13 8 10 9 5 1 3 8 17 21 17 12 5 0 1 5 11 11 11 9 6 6 6 6 7 0 -7 -6 -1 3 4 6 6 7 7 7 7 7 9 12 16 21 24 25 23 18 15 13 11 10 11 11 12 11 10 9 7 7 7 6 5 5 6 7 8 8 7 7 5 6 7 8 nan
nan 6 5 6 6 7 8 8 8 8 7 8 10 9 8 8 8 6 7 10 9 7 6 10 15 14 15 18 16 13 9 8 9 9 8 6 7 10 13 12 9 6 3 1 4 10 12 11 10 8 6 6 6 7 6 -2 -8 -5 0 3 4 5 6 7 8 8 8 7 7 8 11 14 18 22 23 22 20 18 15 12 12 12 13 12 11 9 8 7 7 6 5 5 6 7 8 8 8 8 6 6 7 7 nan
nan 7 5 5 6 8 10 10 9 8 4 7 16 16 8 6 7 5 9 14 10 7 8 17 22 17 12 11 9 8 8 9 8 8 7 8 9 9 8 6 6 5 2 4 9 11 11 10 8 6 6 8 7 7 3 -5 -6 -1 3 4 4 5 5 6 8 8 8 7 8 8 9 11 12 16 19 21 22 21 18 16 15 14 15 14 12 10 8 8 7 7 6 6 6 6 7 8 8 8 7 7 7 7 nan
nan 8 7 6 7 9 10 9 8 7 -0 5 20 17 8 6 5 4 12 15 9 6 11 18 19 13 7 4 5 7 9 8 7 7 7 7 7 7 6 6 5 4 5 8 10 10 9 10 8 6 8 8 7 6 -1 -7 -2 2 4 5 5 5 5 5 7 8 8 8 8 9 9 9 9 10 13 17 19 21 20 19 18 16 16 15 13 11 10 8 8 7 6 6 6 6 7 8 8 8 8 8 8 9 nan
nan 7 7 7 8 8 7 7 6 6 -0 5 18 13 7 6 5 6 12 12 8 6 10 13 11 8 5 4 5 7 7 5 5 6 7 7 7 6 6 5 5 6 7 8 9 8 8 8 8 7 7 6 7 5 -3 -6 0 3 5 6 6 5 5 5 6 7 8 8 9 9 9 9 9 9 10 13 16 19 21 20 19 17 16 15 14 13 11 9 8 7 7 6 6 6 6 7 7 8 8 8 10 11 nan
nan 7 7 7 7 7 7 7 7 8 4 6 12 9 6 5 6 8 10 9 7 6 7 9 9 7 5 4 6 7 5 3 5 7 7 5 6 6 4 3 5 7 6 5 8 9 9 8 7 7 6 6 7 4 -3 -4 -0 3 5 7 7 7 6 5 5 6 8 9 9 9 9 9 9 9 10 11 13 16 19 21 20 18 16 15 15 14 12 10 9 7 7 6 6 6 6 6 7 7 7 7 9 11 nan
nan 7 7 8 7 7 7 8 8 8 7 6 7 6 5 6 8 9 10 8 7 7 7 7 7 5 4 5 6 6 5 6 7 7 6 4 5 6 5 4 6 7 6 7 9 10 8 7 7 6 5 7 8 5 -1 -4 -0 3 5 6 7 7 6 6 5 6 8 9 10 9 9 9 9 9 10 11 12 14 16 19 20 19 18 18 17 15 14 11 9 8 7 6 6 6 6 6 6 6 7 6 7 10 nan
nan 7 7 7 7 8 8 8 8 8 7 6 6 5 6 8 9 10 9 8 7 7 6 5 4 5 5 6 7 6 8 9 7 6 5 6 7 8 6 6 7 6 7 9 10 9 7 6 6 5 5 7 7 5 0 -3 1 3 5 6 6 7 7 6 6 7 8 9 10 10 9 9 9 9 10 12 12 12 13 15 18 20 21 21 19 17 15 13 11 9 8 7 7 6 6 6 6 6 5 6 7 9 nan
nan 7 7 8 8 8 8 8 8 7 7 6 6 6 7 8 9 9 8 7 7 6 5 4 5 8 9 8 8 8 10 9 7 6 6 8 9 9 6 6 6 5 7 10 9 7 6 6 5 4 5 7 7 7 2 -1 2 3 4 5 6 6 7 7 7 8 8 9 10 10 10 9 9 9 10 11 12 13 12 13 16 19 22 23 21 18 16 14 12 11 9 8 8 7 7 6 5 5 6 7 8 8 nan
nan 7 7 8 8 8 8 8 7 7 6 6 6 7 7 7 8 8 8 7 6 6 6 7 8 9 9 9 8 9 10 9 7 5 6 10 9 7 6 5 5 6 9 9 7 7 7 6 5 6 7 8 8 8 3 1 1 1 4 5 6 6 7 8 8 8 8 9 9 9 10 10 9 9 10 11 12 13 13 13 13 16 21 24 23 20 17 14 13 12 10 9 9 9 8 6 5 5 6 7 8 9 nan
nan 8 8 8 7 7 8 8 7 7 6 6 7 7 7 7 8 8 7 7 7 7 7 7 7 7 7 8 7 7 8 7 6 6 9 10 7 5 5 6 6 7 7 7 8 9 8 6 6 7 9 8 8 8 4 3 -1 1 5 6 6 6 7 8 8 8 8 8 9 10 10 10 10 9 9 10 12 13 14 12 11 13 18 23 25 25 20 15 13 11 11 10 10 10 9 7 5 4 5 8 9 10 nan
nan 8 8 8 7 7 8 7 7 7 6 6 6 7 7 7 7 7 7 7 7 7 6 6 6 5 7 8 7 7 7 7 8 7 8 8 6 5 6 6 5 6 8 10 12 11 9 7 8 10 10 9 9 7 6 4 1 2 4 5 6 7 7 7 8 8 8 9 9 10 11 11 10 9 9 9 11 12 14 11 9 9 13 20 26 30 25 18 14 11 11 11 10 10 10 9 7 5 4 6 7 8 nan
nan 9 8 8 8 8 7 7 7 7 7 6 6 6 7 6 7 7 7 7 7 7 6 7 7 7 9 9 8 8 8 9 9 8 8 8 7 6 5 5 5 8 10 12 11 9 8 8 10 11 9 7 7 7 9 7 4 4 4 7 7 8 7 7 7 7 8 9 9 10 11 11 11 10 9 9 9 11 12 11 9 8 8 13 22 31 33 25 18 12 10 10 10 10 11 10 8 7 5 6 6 7 nan
nan 8 8 8 8 8 8 7 8 7 6 6 6 7 6 6 7 7 8 8 7 7 7 7 7 7 8 8 8 8 8 8 9 8 8 8 6 6 5 6 8 9 11 10 8 7 8 8 8 7 5 4 7 8 8 7 7 4 6 8 8 7 7 7 7 7 8 9 9 10 11 12 12 11 9 8 9 10 11 11 10 7 6 8 16 28 38 34 24 16 11 9 9 9 10 10 9 8 7 7 6 6 nan
nan 9 8 8 8 8 8 8 8 7 6 6 7 7 6 6 7 7 8 7 7 6 6 6 6 6 7 8 7 7 8 8 9 9 9 7 6 6 6 7 9 10 10 8 7 7 7 7 6 7 6 7 7 7 7 7 8 8 10 7 7 7 6 6 7 7 9 9 10 10 10 11 12 12 10 8 8 8 10 11 10 8 4 4 10 19 36 41 34 24 14 9 9 9 9 9 9 8 8 8 7 6 nan
nan 9 8 8 8 8 7 8 8 7 7 7 7 7 6 6 7 7 8 7 7 7 6 6 7 8 8 8 8 7 7 7 8 9 8 6 5 6 6 8 10 10 9 7 6 7 8 7 7 8 8 7 7 7 9 9 10 11 9 3 3 5 6 7 8 9 9 10 10 10 11 11 12 12 11 9 8 8 9 10 10 8 5 4 6 12 27 40 39 33 20 12 9 8 8 8 8 8 8 8 8 7 nan
nan 9 9 8 8 7 7 8 8 7 6 8 8 7 7 7 9 9 9 9 8 8 8 8 9 9 9 9 8 8 7 7 9 9 7 5 6 6 8 9 9 9 8 8 8 9 8 8 8 8 7 7 9 11 11 10 10 10 4 2 6 8 10 12 11 10 9 10 10 11 11 12 12 13 11 10 9 8 8 9 9 7 6 5 6 8 16 30 37 39 30 17 11 9 9 8 8 7 7 8 9 8 nan
nan 9 9 8 8 7 8 9 7 6 6 8 9 8 8 10 10 10 9 9 8 7 8 10 9 8 9 9 9 8 8 9 10 10 8 7 8 8 9 8 9 9 8 9 10 9 8 8 7 7 7 9 11 11 10 10 9 7 5 9 11 13 15 16 15 10 8 9 10 11 11 12 12 12 12 11 9 8 8 8 8 8 8 7 7 7 10 19 28 36 37 27 16 10 9 9 9 8 7 8 9 10 nan
nan 9 9 9 8 8 8 7 6 5 7 10 10 9 9 9 9 8 8 7 6 7 10 10 8 8 9 10 9 8 8 9 9 9 8 8 8 8 7 8 9 9 8 8 9 8 7 7 7 8 8 10 10 9 10 10 8 7 8 9 11 13 16 15 10 7 7 8 9 10 11 11 11 12 12 11 10 9 8 8 8 8 9 8 8 8 8 11 18 27 37 36 25 15 11 10 10 9 7 7 9 10 nan
nan 9 9 9 8 8 7 6 6 6 9 10 10 9 8 8 8 8 8 7 7 8 10 8 8 8 10 9 8 6 6 8 8 8 7 7 7 7 7 8 8 8 8 8 8 7 7 8 8 8 8 8 8 9 11 10 7 6 7 8 9 10 10 7 6 7 8 7 8 8 9 10 11 11 11 11 11 10 9 8 9 9 9 9 9 9 9 10 12 18 30 39 35 24 15 13 12 11 9 7 8 9 nan
nan 9 9 8 8 8 7 6 5 7 10 10 10 9 8 8 8 8 8 7 7 8 8 8 8 9 9 8 7 5 7 9 9 8 7 6 6 7 7 7 7 7 7 7 8 8 9 8 7 6 7 9 10 11 11 8 5 6 7 8 8 8 7 5 6 9 10 8 6 6 6 9 10 11 11 12 11 10 9 8 9 9 10 10 9 10 10 10 11 13 22 35 40 34 23 17 16 14 10 8 8 8 nan
nan 9 9 8 8 8 7 5 6 8 10 10 9 8 8 8 8 8 7 7 8 8 8 8 8 8 7 7 8 7 9 10 9 8 6 6 6 7 7 7 7 7 7 7 9 10 9 7 6 7 9 11 11 11 9 6 5 7 8 8 7 6 5 3 5 9 10 8 6 2 3 6 8 10 12 12 11 11 10 9 9 10 10 10 10 11 11 10 10 12 18 31 39 38 28 21 19 16 11 7 7 8 nan
nan 9 9 8 8 7 5 5 7 9 10 9 9 8 8 8 8 7 7 8 9 9 9 9 8 7 7 8 8 8 9 8 8 7 6 6 6 7 7 8 8 7 7 8 10 10 8 7 7 9 11 11 11 9 6 5 6 8 8 6 5 4 2 2 6 11 10 7 7 4 2 2 7 10 12 13 12 11 10 10 10 10 11 11 11 11 11 10 10 11 17 29 37 38 29 22 20 19 15 7 4 5 nan
nan 9 9 8 7 6 5 6 8 9 10 9 9 8 8 8 8 8 8 9 9 9 9 9 9 8 8 8 8 8 8 8 7 7 6 7 7 8 8 8 8 8 8 10 11 10 8 7 8 9 9 11 10 8 6 7 8 8 7 6 6 6 5 8 12 13 8 6 7 8 4 0 5 8 11 13 13 12 11 11 11 11 11 11 11 12 11 9 10 11 18 28 35 37 28 20 18 20 20 10 3 -0 nan
nan 9 9 8 7 6 6 7 8 10 10 9 8 8 8 8 8 8 8 9 9 9 9 9 9 9 9 8 8 7 8 8 8 7 7 8 9 9 8 9 9 10 11 12 11 9 7 7 6 6 9 11 10 8 9 9 8 8 8 9 10 10 9 11 12 9 5 6 7 10 6 2 2 6 11 13 14 13 12 10 10 10 11 11 12 12 11 9 10 12 20 29 34 36 28 18 16 17 19 14 5 -1 nan
nan 10 9 8 7 6 6 7 10 10 10 9 8 8 8 8 8 8 8 9 9 9 9 9 8 8 9 9 8 8 8 8 8 7 8 9 8 7 8 11 11 12 11 11 9 8 7 6 6 8 13 12 10 10 11 9 8 9 11 10 10 9 8 9 8 6 5 7 10 11 8 5 3 4 10 13 14 14 12 9 8 8 10 11 12 13 12 10 10 13 21 30 33 33 29 21 15 12 13 14 9 3 nan
nan 10 9 7 7 6 7 9 10 10 9 9 8 8 8 8 8 8 8 9 9 9 8 8 7 8 8 8 8 8 8 8 8 6 7 8 8 8 11 13 12 11 10 10 9 8 6 6 9 13 14 12 11 11 10 6 8 11 11 9 9 7 6 7 6 7 9 12 13 10 7 6 7 7 9 12 15 14 9 6 5 6 8 10 11 12 12 10 10 13 21 29 31 31 29 24 18 12 9 10 10 8 nan
nan 9 8 7 7 7 8 9 9 9 9 9 9 8 8 8 8 7 8 9 9 8 8 7 8 7 6 7 9 9 9 8 7 7 9 10 10 9 11 12 11 11 10 10 9 8 7 9 12 13 12 11 11 10 7 6 10 13 11 9 8 6 5 5 7 9 13 15 12 8 7 8 9 9 11 12 14 10 5 2 3 4 6 8 9 10 11 11 11 14 20 26 28 30 29 27 22 16 11 10 10 10 nan
nan 9 8 7 7 8 8 9 9 9 9 9 9 8 8 8 7 6 7 9 9 9 8 8 9 9 6 8 12 12 10 8 8 9 11 11 10 9 12 13 13 12 11 10 9 7 6 10 12 11 12 11 11 9 6 7 10 11 10 8 7 6 5 6 8 11 16 14 8 6 8 8 9 10 12 11 11 9 6 4 4 4 6 7 8 9 10 11 13 15 18 21 24 28 32 32 28 22 15 11 10 9 nan
nan 10 8 7 8 9 8 8 8 9 9 9 8 7 7 7 5 5 6 8 9 10 8 8 10 10 9 11 12 11 9 7 7 9 11 13 13 12 14 14 13 12 12 11 9 6 6 10 11 12 13 11 8 6 6 8 9 10 8 7 7 6 6 7 9 13 15 9 5 6 8 9 9 11 12 11 11 10 9 8 6 6 7 7 8 9 10 13 16 18 18 17 17 22 33 39 36 29 19 13 11 8 nan
nan 10 9 7 8 9 8 7 7 9 9 9 8 7 6 5 4 4 5 8 11 11 9 9 8 9 11 12 11 9 7 6 7 9 13 14 13 13 14 13 13 13 13 13 11 9 11 14 14 14 11 7 4 5 7 9 10 10 9 8 7 6 6 8 11 14 11 5 5 7 9 10 11 12 11 10 10 11 11 11 9 7 7 9 12 15 15 14 15 17 17 14 11 14 26 39 41 38 27 17 13 9 nan
nan 9 7 7 8 8 8 7 8 9 9 8 7 6 5 4 4 6 8 11 14 13 11 9 8 8 11 13 11 8 5 6 8 13 16 12 10 9 9 12 14 14 14 13 12 13 16 17 15 12 6 3 4 6 9 10 10 10 9 8 7 6 7 10 11 11 6 5 8 10 10 12 13 13 10 8 9 9 10 10 9 7 8 12 17 22 19 16 15 14 14 12 10 10 18 30 39 43 37 25 18 14 nan
nan 7 7 8 7 8 7 7 8 8 6 7 9 9 8 7 10 14 13 11 13 12 12 11 9 9 11 11 11 6 5 7 9 15 14 7 5 5 7 9 11 14 14 11 13 15 18 16 11 5 2 3 6 8 10 11 11 11 9 7 6 6 8 10 9 8 6 7 9 10 11 13 15 12 7 5 7 8 8 8 7 7 8 12 15 18 19 13 6 7 9 12 12 10 13 21 29 37 42 36 27 21 nan
nan 8 8 8 8 8 7 7 7 5 8 12 12 12 11 12 13 13 10 8 8 8 11 12 9 9 10 10 10 5 4 8 9 12 9 5 6 10 13 12 12 11 8 9 15 17 17 12 6 -1 1 6 9 10 10 12 11 10 8 6 6 7 8 8 8 8 8 9 10 10 12 14 12 8 4 4 6 8 9 7 8 9 8 7 7 9 13 10 4 -0 3 11 12 10 12 16 20 26 35 39 36 30 nan
nan 8 8 8 8 8 8 7 7 8 10 11 10 10 10 9 9 8 9 9 7 6 6 7 9 9 8 10 9 5 6 9 9 11 10 8 10 15 18 15 12 7 4 9 13 15 14 7 2 -1 4 9 11 11 11 11 10 9 8 7 7 7 7 8 9 9 8 8 9 9 11 12 9 5 4 5 7 8 8 8 10 10 9 7 8 9 10 6 3 4 8 8 10 12 12 13 15 18 25 34 37 36 nan
nan 8 9 8 8 7 7 7 7 9 10 10 9 9 8 6 8 9 9 8 7 5 5 6 9 10 10 9 9 7 7 7 9 11 9 8 10 12 12 11 9 6 8 11 10 11 6 -1 -0 5 11 13 13 12 12 11 9 8 6 6 7 7 7 8 10 10 9 9 9 8 9 9 7 5 6 8 7 6 6 7 9 11 10 9 9 8 3 -1 3 16 19 7 5 7 13 13 12 14 16 24 32 37 nan
nan 9 10 9 8 7 6 6 8 9 9 10 10 9 7 8 9 9 7 6 6 6 7 9 8 10 10 9 9 7 6 7 10 9 8 8 6 6 6 6 8 11 13 12 10 7 -2 -4 5 14 16 13 12 11 12 12 9 6 4 5 7 7 7 8 9 10 10 10 9 7 7 7 5 5 9 11 8 4 3 5 8 10 10 9 8 6 1 2 13 25 22 7 -3 -5 11 19 14 13 14 16 23 32 nan
nan 10 9 8 7 6 6 7 8 9 10 10 9 9 8 9 8 8 6 6 6 5 7 9 8 9 9 7 7 8 9 9 8 8 8 7 6 7 6 6 8 10 10 9 7 5 -2 0 14 22 14 7 7 9 10 11 9 5 4 6 7 6 6 8 9 10 10 10 8 7 6 6 5 7 10 10 7 5 4 6 9 9 9 9 9 9 7 9 15 17 15 6 -4 -14 -1 19 20 20 18 15 19 26 nan
nan 9 9 8 7 6 7 8 8 9 10 8 8 9 9 8 8 8 6 5 6 5 7 10 8 8 7 9 8 8 8 7 6 8 9 9 10 10 7 6 5 4 4 4 4 4 1 7 17 15 6 4 6 9 10 10 8 5 5 7 7 6 6 7 9 10 10 8 7 6 6 7 8 8 8 8 9 8 7 7 8 9 8 8 9 10 7 6 9 11 10 6 -1 -15 -10 12 18 21 20 20 22 26 nan
nan 8 9 9 7 6 8 9 8 9 8 7 9 10 10 9 8 8 5 4 5 5 7 10 9 8 9 10 10 9 6 6 8 9 10 13 14 13 10 8 5 3 3 3 2 2 5 11 13 8 5 6 9 11 12 9 8 6 5 6 7 7 7 8 10 11 10 6 5 6 7 8 8 8 6 7 11 11 9 8 8 8 8 8 9 9 5 3 6 10 6 -0 -3 -10 -5 7 12 15 18 21 24 28 nan
nan 9 9 7 6 6 8 9 9 8 6 7 10 11 10 8 8 7 6 5 4 4 9 11 9 8 10 10 11 9 7 7 9 9 12 15 14 12 10 8 7 7 7 4 3 4 6 8 8 6 7 7 8 11 12 8 6 5 5 6 7 7 9 13 14 13 9 5 5 6 8 8 7 8 7 8 10 11 10 8 8 8 9 9 8 6 3 4 7 6 1 -2 -3 -3 3 7 9 11 13 17 21 26 nan
nan 8 8 6 6 7 9 9 9 9 7 8 11 12 9 8 7 7 6 4 3 6 9 10 10 11 10 10 10 9 9 10 10 9 12 12 9 7 7 8 10 11 10 9 8 8 7 6 4 4 6 5 4 7 8 7 5 5 5 5 6 10 14 16 15 11 6 4 6 7 8 7 7 8 8 7 8 9 9 8 9 9 9 8 7 5 5 8 8 6 6 2 -3 -4 4 8 9 11 13 15 18 20 nan
nan nan nan nan nan nan nan nan nan nan nan nan nan nan nan nan nan nan nan nan nan nan nan nan nan nan nan nan nan nan nan nan nan nan nan nan nan nan nan nan nan nan nan nan nan nan nan nan nan nan nan nan nan nan nan nan nan nan nan nan nan nan nan nan nan nan nan nan nan nan nan nan nan nan nan nan nan nan nan nan nan nan nan nan nan nan nan nan nan nan nan nan nan nan nan nan nan nan nan nan nan nan nan
CAPE
54 48 41 33 29 29 25 26 32 32 35 40 43 43 45 51 51 55 56 56 56 53 51 46 43 43 39 38 36 36 33 29 26 26 24 22 22 26 27 31 31 33 32 27 19 19 17 10 11 11 191 175 196 196 339 607 607 687 401 161 161 134 127 800 1396 1396 1527 1623 1631 1631 1684 1733 1790 1790 1965 2143 2143 2333 2312 2292 2292 2271 2306 2348 2509 2509 2493 2581 2449 2449 2211 2361 2334 2334 2256 2120 2120 2097 2247 2289 2289 2326 2254
55 48 40 33 28 28 26 28 32 32 36 40 42 42 45 50 50 56 59 60 60 55 51 48 44 44 42 41 38 38 35 33 29 29 24 23 23 26 28 32 32 31 32 25 17 17 11 3 7 7 47 229 239 239 340 471 471 598 572 457 457 295 183 935 1329 1329 1538 1585 1634 1634 1683 1730 1831 1831 2002 2183 2183 2372 2459 2437 2437 2415 2337 2375 2535 2535 2465 2554 2422 2422 2180 2387 2362 2362 2339 2203 2203 2124 2273 2314 2314 2355 2284
58 50 40 31 27 27 24 27 32 32 38 41 42 42 44 49 49 59 62 61 61 56 52 50 47 47 42 41 39 39 38 36 31 31 25 24 24 25 28 33 33 31 33 27 16 16 10 2 4 4 13 128 351 351 392 448 448 526 619 530 530 389 326 897 1256 1256 1462 1593 1639 1639 1683 1776 1873 1873 1989 2168 2168 2408 2551 2585 2585 2452 2316 2243 2396 2396 2429 2586 2450 2450 2151 2356 2390 2390 2366 2289 2289 2208 2242 2336 2336 2380 2369
59 50 42 33 27 27 22 25 30 30 37 41 44 44 47 52 52 63 64 59 59 56 56 53 48 48 44 42 40 40 38 39 31 31 23 22 22 25 31 33 33 35 36 28 18 18 2 1 4 4 9 12 335 335 570 564 564 589 576 512 512 430 552 903 1177 1177 1384 1510 1640 1640 1731 1775 1968 1968 2019 2142 2142 2333 2473 2619 2619 2431 2138 2015 2133 2133 2200 2495 2426 2426 2245 2331 2419 2419 2396 2321 2321 2241 2154 2302 2302 2402 2391
58 51 43 35 27 27 22 24 28 28 35 39 45 45 48 57 57 65 62 58 58 56 57 55 51 51 47 44 41 41 40 38 27 27 19 19 19 25 31 38 38 40 35 29 18 18 0 0 3 3 10 15 217 217 580 719 719 711 575 503 503 472 768 915 1142 1142 1305 1514 1641 1641 1731 1823 1918 1918 2002 2125 2125 2230 2297 2382 2382 2154 1828 1708 1931 1931 1967 2187 2376 2376 2334 2308 2395 2395 2372 2298 2298 2136 1965 2231 2231 2367 2354
54 51 45 35 29 29 24 22 26 26 32 37 45 45 50 61 61 67 62 58 58 58 57 57 54 54 48 45 42 42 44 37 21 21 14 16 16 22 28 40 40 40 34 27 16 16 2 nan 0 0 7 13 61 61 418 754 754 709 606 500 500 546 812 961 1113 1113 1310 1512 1640 1640 1729 1823 1962 1962 2054 2032 2032 2045 2120 2166 2166 1903 1548 1458 1830 1830 1769 1938 2168 2168 2361 2284 2370 2370 2404 2274 2274 2078 1859 2168 2168 2339 2376
51 49 43 36 30 30 27 24 25 25 29 34 43 43 54 62 62 65 62 58 58 57 57 57 57 57 52 49 46 46 44 32 15 15 10 12 12 19 33 42 42 38 32 24 17 17 3 nan nan nan nan 8 10 10 244 696 696 769 633 556 556 659 786 896 1084 1084 1316 1514 1639 1639 1713 1810 1919 1919 1963 1932 1932 1952 2063 2150 2150 1918 1643 1509 1735 1735 1803 1839 1994 1994 2208 2214 2405 2405 2380 2305 2305 2181 2008 2156 2156 2322 2347
44 44 40 32 29 29 29 27 28 28 29 32 43 43 54 62 62 64 59 56 56 55 54 55 55 55 53 52 49 49 44 27 9 9 5 7 7 16 31 37 37 31 26 22 14 14 6 nan nan nan nan nan 4 4 10 443 443 707 662 614 614 753 837 900 1014 1014 1242 1437 1644 1644 1758 1858 1917 1917 1960 1928 1928 1906 2008 2153 2153 1985 1810 1648 1725 1725 1794 1821 1899 1899 2056 2048 2342 2342 2255 2238 2238 2217 2098 2184 2184 2303 2325
38 37 33 26 28 28 30 31 29 29 30 33 43 43 56 63 63 59 55 51 51 52 52 52 54 54 54 54 51 51 43 21 5 5 3 5 5 13 24 27 27 22 19 16 10 10 4 nan nan nan nan nan nan nan 4 106 106 590 599 669 669 751 932 947 1051 1051 1206 1327 1562 1562 1778 1872 1877 1877 1923 1871 1871 1853 1946 2096 2096 2066 1942 1814 1798 1798 1828 1760 1835 1835 1898 1819 2135 2135 2137 2202 2202 2278 2128 2212 2212 2284 2359
29 27 22 20 22 22 31 31 31 31 33 36 48 48 60 61 61 55 48 46 46 47 47 48 51 51 52 53 52 52 40 15 3 3 2 3 3 8 14 16 16 15 13 11 8 8 1 nan nan nan nan nan nan nan 4 23 23 510 654 788 788 940 1060 1107 1095 1095 1095 1212 1406 1406 1700 1844 1794 1794 1835 1834 1834 1835 1955 2128 2128 2107 2070 1998 1920 1920 1908 1748 1777 1777 1848 1772 1929 1929 2126 2246 2246 2233 2073 2186 2186 2262 2339
22 17 13 13 18 18 29 33 32 32 33 38 50 50 63 61 61 52 45 44 44 44 43 45 48 48 51 52 47 47 32 10 1 1 1 2 2 5 9 9 9 8 8 6 4 4 0 nan nan nan nan nan nan nan 4 23 23 162 630 850 850 1065 1183 1269 1214 1214 1171 1174 1294 1294 1495 1674 1711 1711 1776 1789 1789 1831 1885 2122 2122 2191 2124 2149 2052 2052 1929 1779 1765 1765 1784 1668 1686 1686 1895 1971 1971 1903 1859 2118 2118 2253 2322
13 8 8 11 16 16 23 31 33 33 32 39 52 52 66 61 61 51 45 41 41 43 44 42 45 45 48 47 40 40 24 6 1 1 1 2 2 3 6 5 5 3 3 1 1 1 nan nan nan nan nan nan nan nan 2 16 16 22 270 577 577 818 1064 1283 1345 1345 1210 1173 1219 1219 1385 1506 1573 1573 1689 1766 1766 1839 1800 2002 2002 2190 2237 2127 2140 2140 1959 1805 1751 1751 1775 1697 1540 1540 1609 1608 1608 1562 1664 2054 2054 2249 2314
7 3 3 7 12 12 19 25 29 29 31 37 50 50 62 60 60 51 44 42 42 43 41 39 41 41 44 42 33 33 15 2 1 1 1 1 1 3 4 3 3 1 0 nan nan nan nan nan nan nan nan nan nan nan nan 5 5 16 22 78 78 249 650 1022 1292 1292 1303 1218 1225 1225 1239 1320 1501 1501 1640 1726 1726 1800 1820 1908 1908 2052 2006 2014 2131 2131 1993 1833 1832 1832 1909 1782 1617 1617 1603 1480 1480 1394 1667 2077 2077 2258 2359
2 2 2 7 11 11 18 22 24 24 28 35 48 48 58 57 57 48 41 40 40 40 39 39 39 39 38 32 24 24 8 1 0 0 0 1 1 3 4 2 2 1 nan nan nan nan nan nan nan nan nan nan nan nan nan 1 1 7 13 29 29 40 275 648 1001 1001 1226 1276 1236 1236 1177 1260 1456 1456 1614 1645 1645 1714 1724 1761 1761 1957 1940 1865 1965 1965 1985 1911 1909 1909 1993 1915 1745 1745 1628 1571 1571 1542 1656 2006 2006 2275 2334
2 1 2 4 9 9 15 20 23 23 26 34 45 45 55 51 51 44 38 39 39 38 39 39 37 37 31 25 15 15 2 nan 0 0 0 2 2 4 4 1 1 0 nan nan nan nan nan nan nan nan nan nan nan nan nan 0 0 3 16 26 26 36 49 268 635 635 1007 1272 1262 1262 1205 1207 1356 1356 1501 1618 1618 1644 1693 1748 1748 1812 1825 1741 1754 1754 1915 1951 1984 1984 2013 2071 1881 1881 1755 1691 1691 1621 1680 1952 1952 2121 2160
nan 0 2 3 7 7 13 18 22 22 26 34 45 45 49 45 45 38 35 36 36 36 36 37 35 35 27 19 9 9 0 nan nan nan 0 1 1 4 4 1 1 0 nan nan nan nan nan nan nan nan nan nan nan nan nan nan nan 2 20 24 24 36 49 109 380 380 735 1062 1228 1228 1224 1267 1337 1337 1444 1549 1549 1608 1634 1669 1669 1737 1724 1624 1579 1579 1732 1892 2012 2012 2084 2095 2015 2015 1938 1814 1814 1697 1666 1835 1835 1891 1822
nan nan 0 2 4 4 10 14 20 20 24 33 45 45 42 35 35 30 30 33 33 35 35 35 32 32 23 16 9 9 nan nan nan nan nan 1 1 3 3 1 1 nan nan nan nan nan nan nan nan nan nan nan nan nan nan nan nan 4 16 21 21 32 47 56 176 176 475 845 1091 1091 1223 1275 1311 1311 1383 1452 1452 1547 1549 1587 1587 1734 1713 1575 1614 1614 1685 1937 2049 2049 2128 2072 2101 2101 2078 1995 1995 1820 1657 1763 1763 1776 1669
nan nan nan 1 2 2 6 10 15 15 22 31 40 40 35 26 26 21 25 29 29 33 33 33 27 27 19 12 3 3 nan nan nan nan nan 1 1 2 2 0 0 nan nan nan nan nan nan nan nan nan nan nan nan nan nan nan nan 4 14 21 21 30 42 54 68 68 267 605 900 900 1115 1235 1298 1298 1290 1362 1362 1438 1489 1574 1574 1694 1667 1589 1598 1598 1689 1856 2041 2041 2113 2094 2138 2138 2119 2078 2078 1951 1684 1656 1656 1710 1700
nan nan nan 0 0 0 2 5 9 9 16 27 32 32 26 17 17 13 20 25 25 28 30 28 21 21 15 8 nan nan nan nan nan nan nan nan nan 1 1 nan nan nan nan nan nan nan nan nan nan nan nan nan nan nan nan nan nan 6 14 20 20 28 36 48 56 56 92 358 649 649 921 1129 1207 1207 1221 1290 1290 1351 1461 1526 1526 1590 1595 1557 1513 1513 1598 1701 1903 1903 1993 2077 2115 2115 2093 2114 2114 1987 1715 1552 1552 1572 1731
nan nan nan nan nan nan nan 0 2 2 8 20 11 11 8 4 4 3 11 15 15 17 19 20 5 5 3 nan nan nan nan nan nan nan nan nan nan nan nan nan nan nan nan nan nan nan nan nan nan nan nan nan nan nan nan nan nan 5 15 23 23 29 26 26 37 37 57 70 237 237 513 755 864 864 1002 1122 1122 1196 1290 1375 1375 1482 1505 1560 1549 1549 1569 1472 1480 1480 1575 1836 1938 1938 1958 2036 2036 2005 1785 1480 1480 1320 1436
nan nan nan nan nan nan nan nan nan nan nan 16 nan nan nan nan nan nan 8 2 2 7 14 6 nan nan nan nan nan nan nan nan nan nan nan nan nan nan nan nan nan nan nan nan nan nan nan nan nan nan nan nan nan nan nan nan nan 2 9 17 17 22 26 19 32 32 47 65 104 104 366 571 699 699 803 977 977 1118 1246 1337 1337 1428 1467 1508 1470 1470 1511 1473 1388 1388 1400 1622 1836 1836 1901 1973 1973 1996 1825 1471 1471 1229 1203
nan nan nan nan nan nan nan nan nan nan nan 10 nan nan nan nan nan nan nan nan nan nan nan nan nan nan nan nan nan nan nan nan nan nan nan nan nan nan nan nan nan nan nan nan nan nan nan nan nan nan nan nan nan nan nan nan nan nan 3 9 9 14 18 7 26 26 46 53 69 69 201 446 599 599 697 801 801 981 1158 1275 1275 1315 1368 1390 1432 1432 1475 1432 1304 1304 1312 1414 1587 1587 1800 1919 1919 1941 1810 1494 1494 1229 1105
nan nan nan nan nan nan nan nan nan nan nan 1 nan nan nan nan nan nan nan nan nan nan nan nan nan nan nan nan nan nan nan nan nan nan nan nan nan nan nan nan nan nan nan nan nan nan nan nan nan nan nan nan nan nan nan nan nan nan nan 3 3 8 13 13 29 29 36 43 62 62 100 351 502 502 627 720 720 866 1045 1145 1145 1197 1241 1321 1364 1364 1399 1395 1308 1308 1224 1239 1342 1342 1556 1754 1754 1888 1807 1510 1510 1289 1136
nan nan nan nan nan nan nan nan nan nan nan nan nan nan nan nan nan nan nan nan nan nan nan nan nan nan nan nan nan nan nan nan nan nan nan nan nan nan nan nan nan nan nan nan nan nan nan nan nan nan nan nan nan nan nan nan nan nan nan 0 0 3 9 17 26 26 27 38 57 57 80 214 431 431 583 677 677 776 939 1073 1073 1086 1165 1284 1331 1331 1364 1357 1319 1319 1224 1151 1171 1171 1352 1566 1566 1805 1706 1487 1487 1427 1204
nan nan nan nan nan nan nan nan nan nan nan nan nan nan nan nan nan nan nan nan nan nan nan nan nan nan nan nan nan nan nan nan nan nan nan nan nan nan nan nan nan nan nan nan nan nan nan nan nan nan nan nan nan nan nan nan nan nan nan nan nan 1 5 10 18 18 31 37 47 47 74 111 314 314 488 634 634 726 866 998 998 1050 1127 1197 1260 1260 1329 1363 1322 1322 1232 1110 1043 1043 1181 1363 1363 1587 1643 1453 1453 1475 1304
nan nan nan nan nan nan nan nan nan nan nan nan nan nan nan nan nan nan nan nan nan nan nan nan nan nan nan nan nan nan nan nan nan nan nan nan nan nan nan nan nan nan nan nan nan nan nan nan nan nan nan nan nan nan nan nan nan nan nan nan nan 1 3 7 13 13 22 34 48 48 70 89 183 183 394 536 536 679 803 931 931 1041 1113 1173 1244 1244 1298 1329 1319 1319 1282 1113 993 993 1055 1199 1199 1387 1567 1570 1570 1566 1378
nan nan nan nan nan nan nan nan nan nan nan nan nan nan nan nan nan nan nan nan nan nan nan nan nan nan nan nan nan nan nan nan nan nan nan nan nan nan nan nan nan nan nan nan nan nan nan nan nan nan nan nan nan nan nan nan nan nan nan nan nan 1 3 6 8 8 19 33 41 41 55 76 91 91 231 440 440 634 755 868 868 1027 1134 1167 1234 1234 1312 1331 1320 1320 1284 1157 1030 1030 1007 1074 1074 1267 1415 1562 1562 1590 1514
nan nan nan nan nan nan nan nan nan nan nan nan nan nan nan nan nan nan nan nan nan nan nan nan nan nan nan nan nan nan nan nan nan nan nan nan nan nan nan nan nan nan nan nan nan nan nan nan nan nan nan nan nan nan nan nan nan nan nan nan nan 1 3 5 8 8 20 33 39 39 43 60 79 79 115 323 323 534 739 844 844 956 1040 1148 1224 1224 1329 1331 1323 1323 1285 1195 1080 1080 969 989 989 1138 1352 1432 1432 1460 1505
nan nan nan nan nan nan nan nan nan nan nan nan nan nan nan nan nan nan nan nan nan nan nan nan nan nan nan nan nan nan nan nan nan nan nan nan nan nan nan nan nan nan nan nan nan nan nan nan nan nan nan nan nan nan nan nan nan nan nan nan nan 0 3 6 11 11 21 31 39 39 46 51 67 67 80 214 214 437 693 733 733 796 906 1058 1203 1203 1303 1343 1369 1369 1329 1241 1123 1123 1008 949 949 1057 1280 1404 1404 1482 1508
nan nan nan nan nan nan nan nan nan nan nan nan nan nan nan nan nan nan nan nan nan nan nan nan nan nan nan nan nan nan 2 7 0 0 nan nan nan nan nan nan nan nan nan nan nan nan nan nan nan nan nan nan nan nan nan nan nan nan nan nan nan nan 2 6 11 11 21 29 35 35 33 45 56 56 68 84 84 316 501 558 558 586 741 985 1185 1185 1316 1367 1354 1354 1330 1251 1169 1169 1058 989 989 970 1234 1373 1373 1498 1529
nan nan nan nan nan nan nan nan nan nan nan nan nan nan nan nan nan nan nan nan nan nan nan nan nan nan nan nan nan nan 2 7 2 2 nan nan nan nan nan nan nan nan nan nan nan nan nan nan nan nan nan nan nan nan nan nan nan nan nan nan nan nan 1 6 12 12 19 25 29 29 33 42 51 51 61 70 70 138 272 345 345 430 626 884 1171 1171 1304 1381 1394 1394 1370 1329 1218 1218 1148 1069 1069 1054 1282 1389 1389 1502 1540
nan nan nan nan nan nan nan nan nan nan nan nan nan nan nan nan nan nan nan nan nan nan nan nan nan nan nan nan nan nan 1 7 4 4 nan nan nan nan nan nan nan nan nan nan nan nan nan nan nan nan nan nan nan nan nan nan nan nan nan nan nan nan 0 4 9 9 16 22 26 26 33 36 44 44 52 64 64 74 90 211 211 363 501 702 931 931 1252 1393 1442 1442 1419 1331 1295 1295 1182 1178 1178 1267 1373 1364 1364 1393 1454
nan nan nan nan nan nan nan nan nan nan nan nan nan nan nan nan nan nan nan nan nan nan nan nan nan nan nan nan 0 0 1 3 6 6 1 nan nan nan nan nan nan nan nan nan nan nan nan nan nan nan nan nan nan nan nan nan nan nan nan nan nan nan 0 3 7 7 11 17 24 24 31 35 38 38 53 61 61 69 70 113 113 271 376 455 677 677 1074 1339 1480 1480 1457 1374 1292 1292 1256 1255 1255 1323 1362 1303 1303 1293 1319
nan nan nan nan nan nan nan nan nan nan nan nan nan nan nan nan nan nan nan nan nan nan nan nan nan nan nan 0 1 1 1 3 6 6 3 nan nan nan nan nan nan nan nan nan nan nan nan nan nan nan nan nan nan nan nan nan nan nan nan nan nan nan 0 1 4 4 7 13 21 21 31 33 38 38 50 59 59 67 67 66 66 139 184 258 381 381 777 1189 1483 1483 1489 1409 1339 1339 1259 1291 1291 1295 1289 1266 1266 1201 1203
nan nan nan nan nan nan nan nan nan nan nan nan nan nan nan nan nan nan nan nan nan nan nan nan nan nan nan 0 1 1 1 1 5 5 4 nan nan nan nan nan nan nan nan nan nan nan nan nan nan nan nan nan nan nan nan nan nan nan nan nan nan nan 0 0 2 2 6 10 20 20 30 34 36 36 38 56 56 63 65 70 70 62 64 145 265 265 514 945 1267 1267 1501 1448 1373 1373 1302 1235 1235 1238 1198 1210 1210 1168 1105
nan nan nan nan nan nan nan nan nan nan nan nan nan nan nan nan nan nan nan nan nan nan nan nan nan nan nan 0 0 0 0 0 4 4 4 nan nan nan nan nan nan nan nan nan nan nan nan nan nan nan nan nan nan nan nan nan nan nan nan nan nan nan nan 0 0 0 4 9 19 19 30 31 35 35 36 47 47 58 64 65 65 60 49 61 170 170 359 678 1071 1071 1372 1481 1402 1402 1325 1253 1253 1165 1127 1220 1220 1163 1052
nan nan nan nan nan nan nan nan nan nan nan nan nan nan nan nan nan nan nan nan nan nan nan nan nan nan 3 1 0 0 0 1 3 3 3 0 0 nan nan nan nan nan nan nan nan nan nan nan nan nan nan nan nan nan nan nan nan nan nan nan nan nan nan nan nan nan 2 9 14 14 22 26 30 30 33 42 42 55 61 59 59 57 48 41 94 94 230 470 816 816 1203 1478 1506 1506 1433 1268 1268 1159 1088 1162 1162 1141 1037
nan nan nan nan nan nan nan nan nan nan nan nan nan nan nan nan nan nan nan nan nan nan nan nan nan nan 4 2 0 0 0 0 1 1 1 nan nan nan nan nan nan nan nan nan nan nan nan nan nan nan nan nan nan nan nan nan nan nan nan nan nan nan nan nan nan nan nan 6 9 9 16 17 22 22 31 40 40 51 61 58 58 54 46 38 33 33 126 334 641 641 994 1399 1561 1561 1485 1334 1334 1175 1075 1094 1094 1164 1106
nan nan nan nan nan nan nan nan nan nan nan nan nan nan nan nan nan nan nan nan nan nan nan nan nan nan 1 3 1 1 6 1 0 0 0 nan nan nan nan nan nan nan nan nan nan nan nan nan nan nan nan nan nan nan nan nan nan nan nan nan nan nan nan nan nan nan nan 0 5 5 10 10 16 16 25 35 35 49 61 61 61 53 45 36 31 31 38 251 520 520 834 1287 1574 1574 1465 1293 1293 1161 1071 1139 1139 1117 1142
nan nan nan nan nan nan nan nan nan nan nan nan nan nan nan nan nan nan nan nan nan nan nan nan nan nan nan 3 1 1 2 1 0 0 0 nan nan nan nan 0 0 nan nan nan nan nan nan nan nan nan nan nan nan nan nan nan nan nan nan nan nan nan nan nan nan nan nan nan 1 1 6 8 16 16 24 32 32 45 62 58 58 52 43 34 29 29 28 170 457 457 776 1172 1517 1517 1420 1162 1162 1102 1102 1136 1136 1148 1133
nan nan nan nan nan nan nan nan nan nan nan nan nan nan nan nan nan nan nan nan nan nan nan nan nan nan 0 6 2 2 0 0 0 0 nan nan nan nan nan nan nan nan nan nan nan nan nan nan nan nan nan nan nan nan nan nan nan nan nan nan nan nan nan nan nan nan nan nan nan nan 1 10 14 14 23 35 35 46 57 58 58 51 42 32 25 25 26 92 421 421 725 1094 1523 1523 1438 1139 1139 1056 1023 1120 1120 1104 1085
nan nan nan nan nan nan nan nan nan nan nan nan nan nan nan nan nan nan nan nan nan nan nan nan 0 0 2 4 2 2 1 0 0 0 0 nan nan nan nan nan nan nan nan nan nan nan nan nan nan nan nan nan nan nan nan nan nan nan nan nan nan nan nan nan nan nan nan nan nan nan nan 10 16 16 25 36 36 45 51 53 53 47 38 33 29 29 28 64 359 359 710 1065 1442 1442 1490 1185 1185 1029 951 988 988 1059 1045
nan nan nan nan nan nan nan nan nan nan nan nan nan nan nan nan nan nan nan nan nan nan nan nan 2 2 5 1 nan nan nan 0 0 0 1 1 1 0 nan nan nan nan nan nan nan nan nan nan nan nan nan nan nan nan nan nan nan nan nan nan nan nan nan nan nan nan nan nan nan nan nan 3 28 28 30 29 29 34 38 36 36 35 40 50 46 46 37 39 301 301 642 1024 1211 1211 1412 1382 1382 1274 1187 1042 1042 925 923
nan nan nan nan nan nan nan nan nan nan nan nan nan nan nan nan nan nan nan nan nan nan nan 1 3 3 3 0 nan nan nan nan nan nan 0 1 1 0 nan nan nan nan nan nan nan nan nan nan nan nan nan nan nan nan nan nan nan nan nan nan nan nan nan nan nan nan nan nan nan nan nan 4 14 14 30 25 25 29 24 21 21 21 29 48 53 53 43 34 190 190 534 900 1121 1121 1277 1418 1418 1412 1354 1256 1256 1006 922
nan nan nan nan nan nan nan nan nan nan nan nan nan nan nan nan nan nan nan nan nan nan 1 4 2 2 nan nan nan nan nan nan nan nan 0 1 1 0 nan nan nan nan nan nan nan nan nan nan nan nan nan nan nan nan nan nan nan nan nan nan nan nan nan nan nan nan nan nan nan nan nan 6 11 11 8 16 16 15 23 17 17 10 14 36 51 51 45 33 62 62 401 832 1014 1014 1146 1366 1366 1467 1516 1340 1340 1037 952
nan nan nan nan nan nan nan nan nan nan nan nan nan nan nan nan nan nan nan nan nan nan 4 3 0 0 nan nan nan nan nan nan 1 1 1 0 0 0 0 nan nan nan nan nan nan nan nan nan nan nan nan nan nan nan nan nan nan nan nan nan nan nan nan nan nan nan nan nan nan nan nan 0 6 6 3 10 10 10 16 15 15 8 9 24 43 43 45 31 29 29 249 695 911 911 1038 1277 1277 1416 1434 1309 1309 1072 974
nan nan nan nan nan nan nan nan nan nan nan nan nan nan nan nan nan nan nan nan nan 1 6 3 nan nan nan 2 nan nan nan nan nan nan nan nan nan 1 5 nan nan nan nan nan nan nan nan nan nan nan nan nan nan nan nan nan nan nan nan nan nan nan nan nan nan nan nan nan nan nan nan nan 1 1 0 13 13 17 9 11 11 10 8 14 32 32 39 28 26 26 92 508 777 777 953 1152 1152 1308 1343 1285 1285 1137 964
nan nan nan nan nan nan nan nan nan nan nan nan nan nan nan nan nan nan nan nan nan 2 7 11 nan nan nan nan nan nan nan nan nan nan nan nan nan nan nan nan nan nan nan nan nan nan nan nan nan nan nan nan nan nan nan nan nan nan nan nan nan nan nan nan nan nan nan nan nan nan nan nan nan nan 2 19 19 23 17 11 11 13 12 13 23 23 38 29 24 24 35 235 398 398 663 996 996 1219 1265 1200 1200 1126 1083
nan nan nan nan nan nan nan nan nan nan nan nan nan nan nan nan nan nan nan 2 2 2 1 2 3 3 nan nan nan nan nan nan 0 0 0 0 0 nan nan nan nan nan nan nan nan nan nan nan nan nan nan nan nan nan nan nan nan nan nan nan nan nan nan nan nan nan nan nan nan nan nan nan nan nan 14 30 30 33 22 17 17 14 14 17 22 22 44 37 31 31 33 45 67 67 275 648 648 999 1261 1220 1220 1193 1166
nan nan nan nan nan nan nan nan nan nan nan nan nan nan nan nan nan nan 0 1 1 1 nan nan 0 0 nan nan nan nan nan nan 0 0 2 2 2 1 0 nan nan nan nan nan nan nan nan nan nan nan nan nan nan nan nan nan nan nan nan nan nan nan nan nan nan nan nan nan nan nan nan nan 2 2 28 33 33 31 21 20 20 16 13 17 25 25 39 52 41 41 36 34 25 25 46 299 299 724 1058 1203 1203 1258 1212
nan nan nan nan nan nan nan nan nan nan nan 0 nan nan nan nan nan nan nan 1 1 1 nan nan nan nan 1 0 0 0 0 nan 2 2 2 2 2 3 1 0 0 0 nan nan nan nan nan nan nan nan nan nan nan nan nan nan nan nan nan nan nan nan nan nan nan nan nan nan nan nan nan nan 4 4 29 19 19 16 18 18 18 11 10 9 18 18 36 53 41 41 39 26 20 20 21 77 77 390 748 1078 1078 1238 1277
nan nan nan nan nan nan nan nan nan nan 1 nan nan nan nan nan nan nan 1 2 2 1 0 0 1 1 0 3 1 1 0 0 4 4 5 3 3 3 2 9 9 0 nan nan nan nan nan nan nan nan nan nan nan nan nan nan nan nan nan nan nan nan nan nan nan nan nan nan nan nan nan nan 0 0 4 4 4 7 13 14 14 8 7 8 12 12 26 51 31 31 28 23 19 19 16 26 26 180 493 836 836 1119 1300
nan nan nan nan nan nan nan nan nan nan nan nan nan nan nan nan nan nan 2 3 3 1 nan 1 2 2 1 2 1 1 4 2 4 4 9 7 7 3 4 7 7 1 nan nan nan nan nan nan nan nan nan nan nan nan nan nan nan nan nan nan nan nan nan nan nan nan nan nan nan nan nan nan nan nan nan nan nan 3 6 10 10 8 5 5 8 8 17 35 36 36 15 14 20 20 15 14 14 79 285 602 602 971 1244
nan nan nan nan nan nan nan nan nan nan nan nan nan nan nan nan nan nan 3 3 3 1 1 7 5 5 3 1 1 1 2 6 3 3 4 7 7 4 5 6 6 3 3 nan nan nan nan nan nan nan nan nan nan nan nan nan nan nan nan nan nan nan nan nan nan nan nan nan nan nan nan nan nan nan nan nan nan 0 2 8 8 9 7 6 7 7 11 17 22 22 22 8 9 9 15 15 15 37 176 436 436 793 1121
nan nan nan nan nan nan nan nan nan nan nan nan nan nan nan nan nan 1 3 1 1 0 1 3 6 6 3 2 2 2 1 8 3 3 4 6 6 5 6 10 10 9 0 nan nan nan nan nan nan nan nan nan nan nan nan nan nan nan nan nan nan nan nan nan nan nan nan nan nan nan nan nan nan nan nan nan nan nan 0 5 5 10 10 6 6 6 7 13 21 21 48 20 8 8 7 27 27 36 126 345 345 659 969
nan nan nan nan nan nan nan nan nan nan nan nan nan nan nan nan nan 2 5 2 2 nan 1 5 5 5 6 4 3 3 3 3 3 3 4 5 5 14 18 15 15 7 1 0 nan nan nan 1 nan nan nan nan nan nan nan nan nan nan nan nan nan nan nan nan nan nan nan nan nan nan nan nan nan nan nan nan nan nan nan 2 2 12 11 6 4 4 4 8 24 24 59 50 16 16 7 24 24 29 115 312 312 575 816
nan nan nan nan nan nan nan nan nan nan nan nan nan nan nan 1 1 3 4 0 0 nan 3 5 5 5 7 7 4 4 3 2 10 10 8 7 7 15 24 24 24 14 5 3 2 2 3 7 0 0 nan nan nan nan nan nan nan nan nan nan nan nan nan nan nan nan nan nan nan nan nan nan nan nan nan nan nan nan nan nan nan 12 12 6 3 3 3 5 19 19 56 47 21 21 7 17 17 26 91 260 260 467 702
nan nan nan nan nan nan nan nan nan nan nan nan nan nan 1 1 1 3 2 1 1 2 5 6 5 5 6 8 8 8 4 3 4 4 12 8 8 12 18 20 20 25 25 22 13 13 9 6 1 1 nan nan nan nan nan nan nan nan nan nan nan nan nan nan nan nan nan nan nan nan nan nan nan nan nan nan nan nan nan nan nan 9 14 8 3 3 2 5 22 22 47 35 19 19 10 31 31 30 45 140 140 364 579
nan nan nan nan nan nan nan nan nan nan nan 1 1 1 2 2 2 3 2 1 1 3 7 8 7 7 14 11 9 9 5 4 4 4 6 6 6 10 10 1 1 10 22 29 31 31 18 7 4 4 3 nan nan nan nan nan nan nan nan nan nan nan nan nan nan nan nan nan nan nan nan nan nan nan nan nan nan nan nan nan nan 3 14 11 2 2 2 12 30 30 42 36 24 24 24 30 30 31 33 61 61 190 368
nan nan nan nan nan nan nan nan nan nan nan 1 3 3 3 2 2 3 3 2 2 15 12 7 6 6 15 13 8 8 6 6 7 7 8 7 7 4 5 5 5 8 17 21 23 23 24 15 10 10 6 0 nan nan nan nan nan nan nan nan nan nan nan nan nan nan nan nan nan nan nan nan nan nan nan nan nan nan nan nan nan nan 11 10 3 3 2 6 34 34 36 34 30 30 35 31 31 33 31 38 38 95 211
nan nan nan nan nan nan nan nan nan nan nan 10 5 5 5 4 4 3 2 2 2 8 8 6 5 5 7 8 8 8 7 8 9 9 11 8 8 6 12 13 13 11 23 15 10 10 10 14 14 14 7 3 2 2 0 nan nan nan nan nan nan nan nan nan nan nan nan nan nan nan nan nan nan nan nan nan nan nan nan nan nan nan 6 10 4 4 3 10 28 28 21 18 28 28 31 32 32 33 32 35 35 72 141